Regional Weather Roundup
Issued by NWS

Home | Current Version | Previous Version | Text Only | Print | Product List | Glossary Off
Versions: 1 2 3 4 5 6 7 8 9 10 11 12 13 14 15 16 17 18 19 20 21 22 23 24 25 26 27 28 29 30 31 32 33 34 35 36 37 38 39 40 41 42 43 44 45 46 47 48 49 50

000
ASUS43 KOAX 010202
RWRNE

WEATHER ROUNDUP FOR NEBRASKA
NATIONAL WEATHER SERVICE OMAHA NE
900 PM CDT TUE MAY 31 2016

NOTES: SATELLITE DATA IS BEING USED TO AUGMENT CLOUD COVER ABOVE
       12000 FEET.
       "FAIR" INDICATES FEW OR NO CLOUDS BELOW 12,000 FEET WITH NO
       SIGNIFICANT WEATHER AND/OR OBSTRUCTIONS TO VISIBILITY.

  * THESE STATIONS DO NOT REPORT WEATHER SUCH AS RAIN...SNOW OR FOG.

NEZ001>004-019>022-054>056-010300-
NEBRASKA PANHANDLE

CITY           SKY/WX    TMP DP  RH WIND       PRES   REMARKS
SCOTTSBLUFF    CLEAR     62  37  39 N16       30.08R
ALLIANCE       CLEAR     59  38  45 N13       30.07R
CHADRON        CLEAR     61  38  42 NW14      30.06R
SIDNEY         CLOUDY    58  49  72 W7        30.08R
$$

NEZ057>060-069>072-079>082-010300-
SOUTHWEST NEBRASKA

CITY           SKY/WX    TMP DP  RH WIND       PRES   REMARKS
NORTH PLATTE   CLEAR     62  47  57 SW6       30.02R
IMPERIAL       PTCLDY    67  48  50 CALM      30.05R
LEXINGTON      CLEAR     64  52  65 NW6       30.01R
MCCOOK         CLEAR     64  51  62 S5        30.02S
$$

NEZ005>010-023>029-035>040-094-010300-
NORTH CENTRAL NEBRASKA

CITY           SKY/WX    TMP DP  RH WIND       PRES   REMARKS
VALENTINE      CLEAR     60  41  49 NW16G24   30.01R
AINSWORTH      CLEAR     61  45  56 NW10      30.01R
BROKEN BOW     CLEAR     64  49  57 SW3       29.98R
$$

NEZ041-046>049-061>064-073>077-083>087-010300-
SOUTH CENTRAL NEBRASKA

CITY           SKY/WX    TMP DP  RH WIND       PRES   REMARKS
GRAND ISLAND   PTCLDY    68  50  52 CALM      29.99R
HASTINGS       CLEAR     68  48  48 CALM      29.99R
KEARNEY *      PTCLDY    70  46  43 SW5       30.01R
YORK           CLEAR     68  50  52 CALM      29.97R
$$

NEZ011>018-030>034-042>045-010300-
NORTHEAST NEBRASKA

CITY           SKY/WX    TMP DP  RH WIND       PRES   REMARKS
NORFOLK        CLEAR     65  49  56 S7        29.92S
ALBION         MOCLDY    66  46  48 SW5       29.96R
BLAIR          CLEAR     71  48  45 CALM      29.94R
FREMONT        CLEAR     68  47  45 CALM      29.94S
TEKAMAH        CLEAR     71  44  37 SW3       29.92R
$$

NEZ050>053-065>068-078-088>093-010300-
SOUTHEAST NEBRASKA

CITY           SKY/WX    TMP DP  RH WIND       PRES   REMARKS
LINCOLN        CLEAR     73  48  41 W5        29.96R
OMAHA EPPLEY   PTCLDY    71  58  63 E3        29.93R
FALLS CITY     CLEAR     72  60  66 N3        29.92R
NEBRASKA CITY  CLEAR     68  58  69 CALM      29.94S
PLATTSMOUTH    CLEAR     72  56  58 CALM      29.94R
$$

NEZ044-045-051>053-067-010300-
OMAHA AREA

CITY           SKY/WX    TMP DP  RH WIND       PRES   REMARKS
OMAHA EPPLEY   PTCLDY    71  58  63 E3        29.93R
BLAIR          CLEAR     71  48  45 CALM      29.94R
FREMONT        CLEAR     68  47  45 CALM      29.94S
PLATTSMOUTH    CLEAR     72  56  58 CALM      29.94R
WAHOO          FAIR      71  48  43 NW3       29.95R
$$



USA.gov is the U.S. government's official web portal to all federal, state and local government web resources and services.